Flag for Germany Weather past 2 weeks in Osnabrück, Lower Saxony, Germany

Now
66 °F

Passing clouds.


Feels Like: 66 °F
Forecast: 60 / 87 °F
Wind: 5 mph from Northeast

Location: Muenster / Osnabrueck

Current Time: Aug 2, 2015 at 11:37:07 PM

Latest Report: Aug 2, 2015 at 10:50 PM


Visibility: N/A

Pressure: 30.07 "Hg

Humidity: 56%

Dew point: 50 °F

Location of OsnabrückLocation

Historic Weather in Osnabrück — Graph

°F

Osnabrück temperature yesterday

Maximum temperature yesterday: 75 °F (at 2:50 PM)
Minimum temperature yesterday: 48 °F (at 12:20 AM)
Average temperature yesterday: 62 °F

Past Weeks' High & Low Weather Summary

 TemperatureHumidityPressure
High81 °F (Jul 21, 4:20 PM)100% (Jul 20, 4:50 AM)30.15 "Hg (Jul 20, 4:50 AM)
Low45 °F (Jul 31, 5:50 AM)33% (Jul 26, 4:50 PM)29.47 "Hg (Jul 25, 7:20 AM)
Average63 °F72%29.87 "Hg
* Reported Jul 18 10:20 PM — Aug 2 10:20 PM, Osnabrück, Weather by CustomWeather, © 2015

Note: Actual official high and low records may vary slightly from our data, if they occured in-between our weather recording intervals... More about our weather records

Advertising

Osnabrück weather history for previous 24 hours

 ConditionsComfort  
Time TempWeatherWind HumidityBarometerVisibility
10:20 PM
Sun, Aug 2
66 °FPassing clouds.5 mph56%30.07 "HgN/A
9:50 PM66 °FPassing clouds.3 mph60%30.09 "HgN/A
9:20 PM68 °FPassing clouds.3 mph56%30.07 "HgN/A
8:50 PM70 °FPassing clouds.3 mph53%30.07 "HgN/A
8:20 PM72 °FPassing clouds.5 mph50%30.07 "HgN/A
7:50 PM73 °FPassing clouds.6 mph44%30.07 "HgN/A
7:20 PM75 °FPassing clouds.3 mph39%30.09 "HgN/A
6:50 PM77 °FSunny.3 mph34%30.09 "Hg10 mi
6:20 PM75 °FPassing clouds.5 mph34%30.09 "HgN/A
5:50 PM77 °FPassing clouds.7 mph34%30.09 "HgN/A
5:20 PM77 °FPassing clouds.6 mph36%30.12 "HgN/A
4:50 PM77 °FSunny.2 mph34%30.12 "Hg10 mi
4:20 PM75 °FSunny.5 mph36%30.12 "Hg10 mi
3:50 PM75 °FPassing clouds.6 mph39%30.12 "HgN/A
3:20 PM75 °FSunny.5 mph36%30.12 "Hg10 mi
2:50 PM73 °FPassing clouds.5 mph38%30.12 "HgN/A
2:20 PM73 °FPassing clouds.6 mph38%30.12 "HgN/A
1:50 PM73 °FSunny.3 mph38%30.15 "Hg10 mi
1:20 PM73 °FSunny.6 mph41%30.15 "Hg10 mi
12:50 PM73 °FSunny.3 mph38%30.15 "Hg10 mi
12:20 PM72 °FSunny.5 mph44%30.15 "Hg10 mi
11:50 AM70 °FSunny.5 mph46%30.15 "Hg10 mi
11:20 AM70 °FSunny.2 mph46%30.15 "Hg10 mi
10:50 AM70 °FSunny.2 mph50%30.15 "Hg10 mi
10:20 AM68 °FPassing clouds.3 mph53%30.15 "HgN/A
9:50 AM66 °FSunny.2 mph56%30.15 "Hg10 mi
9:20 AM64 °FSunny.1 mph68%30.15 "Hg10 mi
8:50 AM61 °FSunny.1 mph72%30.12 "Hg10 mi
8:20 AM57 °FSunny.1 mph82%30.12 "Hg10 mi
7:50 AM55 °FSunny.1 mph88%30.12 "Hg10 mi
7:20 AM52 °FSunny.No wind94%30.12 "Hg10 mi
6:50 AM48 °FFog.1 mph100%30.12 "HgN/A
6:20 AM46 °FCool.No wind100%30.09 "HgN/A
5:50 AM48 °FCool.No wind94%30.09 "HgN/A
5:20 AM48 °FCool.1 mph100%30.09 "HgN/A
4:50 AM48 °FCool.2 mph100%30.09 "HgN/A
4:20 AM48 °FCool.2 mph100%30.09 "HgN/A
3:50 AM50 °FFog.2 mph94%30.09 "HgN/A
3:20 AM50 °FClear.2 mph94%30.09 "Hg10 mi
2:50 AM52 °FClear.1 mph94%30.07 "Hg10 mi
2:20 AM52 °FClear.No wind88%30.09 "Hg10 mi
1:20 AM54 °FClear.3 mph88%30.07 "Hg10 mi
12:50 AM54 °FClear.1 mph88%30.07 "Hg10 mi
11:20 PM
Sat, Aug 1
57 °FClear.1 mph82%30.07 "Hg10 mi
Weather by CustomWeather, © 2015

See weather overviewHow to use our weather pages